Home > Weather > San Antonio > Past weeks

Flag for USA Weather for the Past 2 Weeks in San Antonio, Texas, USA

Now
57 °F

Mostly cloudy.


Feels Like: 57 °F
Forecast: 55 / 76 °F
Wind: 3 mph from North

Location: San Antonio International Airport

Current Time: May 3, 2016 at 4:42:00 AM

Latest Report: May 3, 2016 at 3:51 AM


Visibility: 10 mi

Pressure: 30.04 "Hg

Humidity: 78%

Dew Point: 50 °F

Location of San AntonioLocation

Historic Weather in San Antonio — Graph

°F

San Antonio Temperature Yesterday

Maximum temperature yesterday: 70 °F (at 12:51 AM)
Minimum temperature yesterday: 59 °F (at 10:51 PM)
Average temperature yesterday: 64 °F

High & Low Weather Summary for the Past Weeks

 TemperatureHumidityPressure
High88 °F (Apr 25, 4:51 PM)97% (Apr 18, 3:51 AM)30.12 "Hg (Apr 18, 3:51 AM)
Low57 °F (Apr 23, 5:51 AM)17% (Apr 27, 1:51 PM)29.51 "Hg (Apr 29, 7:51 PM)
Average72 °F72%29.84 "Hg
* Reported Apr 18 2:51 AM — May 3 2:51 AM, San Antonio, Weather by CustomWeather, © 2016

Note: Actual official high and low records may vary slightly from our data, if they occured in-between our weather recording intervals... More about our weather records

Advertising

San Antonio Weather History for the Previous 24 Hours

Scroll right to see more
 ConditionsComfort  
Time TempWeatherWind HumidityBarometerVisibility
2:51 AM
Tue, May 3
57 °FPassing clouds.5 mph74%30.03 "Hg10 mi
1:51 AM58 °FPassing clouds.8 mph72%30.05 "Hg10 mi
12:51 AM59 °FMostly cloudy.10 mph72%30.06 "Hg10 mi
11:51 PM
Mon, May 2
59 °FMostly cloudy.8 mph72%30.07 "Hg10 mi
10:51 PM59 °FPassing clouds.7 mph75%30.07 "Hg10 mi
9:51 PM60 °FMostly cloudy.7 mph69%30.06 "Hg10 mi
8:51 PM61 °FBroken clouds.7 mph67%30.06 "Hg10 mi
7:51 PM62 °FOvercast.6 mph67%30.05 "Hg10 mi
6:51 PM62 °FOvercast.9 mph65%30.04 "Hg10 mi
5:51 PM63 °FOvercast.12 mph65%30.05 "Hg10 mi
4:51 PM63 °FOvercast.13 mph65%30.04 "Hg10 mi
3:51 PM63 °FOvercast.15 mph65%30.04 "Hg10 mi
2:51 PM63 °FOvercast.17 mph63%30.05 "Hg10 mi
1:51 PM63 °FMore clouds than sun.16 mph68%30.06 "Hg10 mi
12:51 PM64 °FOvercast.21 mph65%30.06 "Hg10 mi
11:51 AM64 °FOvercast.18 mph65%30.07 "Hg10 mi
10:51 AM64 °FOvercast.21 mph63%30.05 "Hg10 mi
9:51 AM63 °FOvercast.22 mph63%30.05 "Hg10 mi
8:51 AM62 °FOvercast.18 mph65%30.03 "Hg10 mi
7:51 AM63 °FOvercast.18 mph63%30.01 "Hg10 mi
6:51 AM64 °FOvercast.18 mph61%29.97 "Hg10 mi
5:51 AM66 °FOvercast.23 mph56%29.94 "Hg10 mi
4:51 AM67 °FOvercast.14 mph57%29.92 "Hg10 mi
Weather by CustomWeather, © 2016

See weather overviewHow to use our weather pages